Time,TemperatureF,DewpointF,PressureIn,WindDirection,WindDirectionDegrees,WindSpeedMPH,WindSpeedGustMPH,Humidity,HourlyPrecipIn,Conditions,Clouds,dailyrainin,SoftwareType,DateUTC
2013-09-09 00:01:00,68.1,63.4,29.96,ESE,118,1.0,3.0,85,0.00,,,0.00,Wunderground v.1.15,2013-09-09 04:01:00,
2013-09-09 00:02:00,68.1,63.4,29.96,ESE,119,1.0,3.0,85,0.00,,,0.00,Wunderground v.1.15,2013-09-09 04:02:00,
2013-09-09 00:04:00,68.1,63.4,29.96,ESE,118,1.0,3.0,85,0.00,,,0.00,Wunderground v.1.15,2013-09-09 04:04:00,
2013-09-09 00:05:00,68.1,63.4,29.96,ESE,119,1.0,3.0,85,0.00,,,0.00,Wunderground v.1.15,2013-09-09 04:05:00,
2013-09-09 00:09:00,68.0,63.3,29.96,ESE,119,1.0,4.0,85,0.00,,,0.00,Wunderground v.1.15,2013-09-09 04:09:00,
2013-09-09 00:15:00,68.0,63.3,29.97,ESE,118,1.0,6.0,85,0.00,,,0.00,Wunderground v.1.15,2013-09-09 04:15:00,
2013-09-09 00:20:00,67.9,63.2,29.97,ESE,119,1.0,1.0,85,0.00,,,0.00,Wunderground v.1.15,2013-09-09 04:20:00,
2013-09-09 00:26:00,67.9,63.2,29.97,ESE,119,1.0,2.0,85,0.00,,,0.00,Wunderground v.1.15,2013-09-09 04:26:00,
2013-09-09 00:31:00,67.8,63.5,29.97,ESE,119,1.0,1.0,86,0.00,,,0.00,Wunderground v.1.15,2013-09-09 04:31:00,
2013-09-09 00:36:00,67.7,63.4,29.97,ESE,119,1.0,3.0,86,0.00,,,0.00,Wunderground v.1.15,2013-09-09 04:36:00,
2013-09-09 00:41:00,67.7,63.4,29.97,ESE,117,1.0,2.0,86,0.00,,,0.00,Wunderground v.1.15,2013-09-09 04:41:00,
2013-09-09 00:47:00,67.6,63.3,29.97,ESE,117,1.0,2.0,86,0.00,,,0.00,Wunderground v.1.15,2013-09-09 04:47:00,
2013-09-09 00:48:00,67.6,63.3,29.97,ESE,117,1.0,2.0,86,0.00,,,0.00,Wunderground v.1.15,2013-09-09 04:48:00,
2013-09-09 00:53:00,67.5,63.2,29.97,ESE,117,1.0,3.0,86,0.00,,,0.00,Wunderground v.1.15,2013-09-09 04:53:00,
2013-09-09 00:59:00,67.4,63.1,29.97,ESE,117,1.0,3.0,86,0.00,,,0.00,Wunderground v.1.15,2013-09-09 04:59:00,
2013-09-09 01:04:00,67.3,63.0,29.97,ESE,117,1.0,4.0,86,0.00,,,0.00,Wunderground v.1.15,2013-09-09 05:04:00,
2013-09-09 01:09:00,67.2,62.9,29.97,ESE,117,1.0,4.0,86,0.00,,,0.00,Wunderground v.1.15,2013-09-09 05:09:00,
2013-09-09 01:14:00,67.1,62.8,29.97,ESE,117,1.0,3.0,86,0.00,,,0.00,Wunderground v.1.15,2013-09-09 05:14:00,
2013-09-09 01:20:00,67.0,62.7,29.97,ESE,117,1.0,3.0,86,0.00,,,0.00,Wunderground v.1.15,2013-09-09 05:20:00,
2013-09-09 01:25:00,66.9,62.9,29.97,ESE,117,2.0,7.0,87,0.00,,,0.00,Wunderground v.1.15,2013-09-09 05:25:00,
2013-09-09 01:31:00,66.8,62.8,29.97,ESE,117,1.0,1.0,87,0.00,,,0.00,Wunderground v.1.15,2013-09-09 05:31:00,
2013-09-09 01:36:00,66.7,62.7,29.97,ESE,117,0.0,1.0,87,0.00,,,0.00,Wunderground v.1.15,2013-09-09 05:36:00,
2013-09-09 01:41:00,66.7,62.7,29.97,ESE,117,0.0,0.0,87,0.00,,,0.00,Wunderground v.1.15,2013-09-09 05:41:00,
2013-09-09 01:47:00,66.6,62.6,29.98,ESE,117,1.0,2.0,87,0.00,,,0.00,Wunderground v.1.15,2013-09-09 05:47:00,
2013-09-09 01:52:00,66.6,62.6,29.97,ESE,117,1.0,1.0,87,0.00,,,0.00,Wunderground v.1.15,2013-09-09 05:52:00,
2013-09-09 01:58:00,66.6,62.6,29.97,ESE,117,0.0,3.0,87,0.00,,,0.00,Wunderground v.1.15,2013-09-09 05:58:00,
2013-09-09 02:03:00,66.6,62.6,29.97,ESE,117,1.0,4.0,87,0.00,,,0.00,Wunderground v.1.15,2013-09-09 06:03:00,
2013-09-09 02:08:00,66.6,62.6,29.97,ESE,117,1.0,4.0,87,0.00,,,0.00,Wunderground v.1.15,2013-09-09 06:08:00,
2013-09-09 02:14:00,66.5,62.5,29.97,ESE,117,1.0,3.0,87,0.00,,,0.00,Wunderground v.1.15,2013-09-09 06:14:00,
2013-09-09 02:19:00,66.6,62.6,29.97,ESE,117,1.0,3.0,87,0.00,,,0.00,Wunderground v.1.15,2013-09-09 06:19:00,
2013-09-09 02:24:00,66.6,62.6,29.97,ESE,117,0.0,2.0,87,0.00,,,0.00,Wunderground v.1.15,2013-09-09 06:24:00,
2013-09-09 02:30:00,66.6,62.6,29.97,ESE,117,0.0,0.0,87,0.00,,,0.00,Wunderground v.1.15,2013-09-09 06:30:00,
2013-09-09 02:35:00,66.6,62.6,29.97,ESE,117,0.0,0.0,87,0.00,,,0.00,Wunderground v.1.15,2013-09-09 06:35:00,
2013-09-09 02:40:00,66.5,62.5,29.97,ESE,117,1.0,1.0,87,0.00,,,0.00,Wunderground v.1.15,2013-09-09 06:40:00,
2013-09-09 02:45:00,66.5,62.5,29.97,ESE,117,1.0,2.0,87,0.00,,,0.00,Wunderground v.1.15,2013-09-09 06:45:00,
2013-09-09 02:51:00,66.5,62.5,29.97,ESE,117,1.0,1.0,87,0.00,,,0.00,Wunderground v.1.15,2013-09-09 06:51:00,
2013-09-09 02:56:00,66.5,62.5,29.97,ESE,117,1.0,3.0,87,0.00,,,0.00,Wunderground v.1.15,2013-09-09 06:56:00,
2013-09-09 03:01:00,66.5,62.5,29.97,ESE,117,1.0,2.0,87,0.00,,,0.00,Wunderground v.1.15,2013-09-09 07:01:00,
2013-09-09 03:07:00,66.5,62.5,29.97,ESE,117,0.0,2.0,87,0.00,,,0.00,Wunderground v.1.15,2013-09-09 07:07:00,
2013-09-09 03:12:00,66.4,62.4,29.97,ESE,117,0.0,2.0,87,0.00,,,0.00,Wunderground v.1.15,2013-09-09 07:12:00,
2013-09-09 03:17:00,66.4,62.7,29.96,ESE,117,0.0,2.0,88,0.00,,,0.00,Wunderground v.1.15,2013-09-09 07:17:00,
2013-09-09 03:23:00,66.3,62.6,29.96,ESE,117,0.0,3.0,88,0.00,,,0.00,Wunderground v.1.15,2013-09-09 07:23:00,
2013-09-09 03:28:00,66.2,62.5,29.96,ESE,117,1.0,3.0,88,0.00,,,0.00,Wunderground v.1.15,2013-09-09 07:28:00,
2013-09-09 03:33:00,66.1,62.4,29.96,ESE,117,0.0,2.0,88,0.00,,,0.00,Wunderground v.1.15,2013-09-09 07:33:00,
2013-09-09 03:38:00,66.0,62.3,29.96,ESE,117,0.0,2.0,88,0.00,,,0.00,Wunderground v.1.15,2013-09-09 07:38:00,
2013-09-09 03:44:00,65.9,62.2,29.96,ESE,117,0.0,0.0,88,0.00,,,0.00,Wunderground v.1.15,2013-09-09 07:44:00,
2013-09-09 03:49:00,65.9,62.2,29.96,ESE,117,0.0,0.0,88,0.00,,,0.00,Wunderground v.1.15,2013-09-09 07:49:00,
2013-09-09 03:54:00,65.8,62.1,29.96,ESE,117,0.0,0.0,88,0.00,,,0.00,Wunderground v.1.15,2013-09-09 07:54:00,
2013-09-09 04:00:00,65.7,62.4,29.96,ESE,117,0.0,0.0,89,0.00,,,0.00,Wunderground v.1.15,2013-09-09 08:00:00,
2013-09-09 04:06:00,65.6,62.3,29.95,ESE,117,0.0,0.0,89,0.00,,,0.00,Wunderground v.1.15,2013-09-09 08:06:00,
2013-09-09 04:11:00,65.5,62.2,29.96,ESE,117,0.0,0.0,89,0.00,,,0.00,Wunderground v.1.15,2013-09-09 08:11:00,
2013-09-09 04:16:00,65.4,62.1,29.96,ESE,117,0.0,0.0,89,0.00,,,0.00,Wunderground v.1.15,2013-09-09 08:16:00,
2013-09-09 04:21:00,65.3,62.0,29.96,ESE,117,0.0,0.0,89,0.00,,,0.00,Wunderground v.1.15,2013-09-09 08:21:00,
2013-09-09 04:27:00,65.2,61.9,29.96,ESE,117,0.0,0.0,89,0.00,,,0.00,Wunderground v.1.15,2013-09-09 08:27:00,
2013-09-09 04:32:00,65.1,61.8,29.96,ESE,117,0.0,0.0,89,0.00,,,0.00,Wunderground v.1.15,2013-09-09 08:32:00,
2013-09-09 04:37:00,65.0,62.0,29.96,ESE,117,0.0,0.0,90,0.00,,,0.00,Wunderground v.1.15,2013-09-09 08:37:00,
2013-09-09 04:42:00,64.9,61.9,29.96,ESE,117,0.0,0.0,90,0.00,,,0.00,Wunderground v.1.15,2013-09-09 08:42:00,
2013-09-09 04:48:00,64.8,61.8,29.95,ESE,117,0.0,0.0,90,0.00,,,0.00,Wunderground v.1.15,2013-09-09 08:48:00,
2013-09-09 04:53:00,64.7,61.7,29.95,ESE,117,0.0,0.0,90,0.00,,,0.00,Wunderground v.1.15,2013-09-09 08:53:00,
2013-09-09 04:58:00,64.5,61.5,29.95,ESE,117,0.0,0.0,90,0.00,,,0.00,Wunderground v.1.15,2013-09-09 08:58:00,
2013-09-09 05:03:00,64.4,61.4,29.95,ESE,117,0.0,0.0,90,0.00,,,0.00,Wunderground v.1.15,2013-09-09 09:03:00,
2013-09-09 05:08:00,64.3,61.3,29.94,ESE,117,0.0,0.0,90,0.00,,,0.00,Wunderground v.1.15,2013-09-09 09:08:00,
2013-09-09 05:13:00,64.2,61.2,29.94,ESE,117,0.0,0.0,90,0.00,,,0.00,Wunderground v.1.15,2013-09-09 09:13:00,
2013-09-09 05:19:00,64.1,61.4,29.94,ESE,117,0.0,0.0,91,0.00,,,0.00,Wunderground v.1.15,2013-09-09 09:19:00,
2013-09-09 05:24:00,64.1,61.4,29.94,ESE,117,0.0,0.0,91,0.00,,,0.00,Wunderground v.1.15,2013-09-09 09:24:00,
2013-09-09 05:29:00,64.0,61.3,29.94,ESE,117,0.0,0.0,91,0.00,,,0.00,Wunderground v.1.15,2013-09-09 09:29:00,
2013-09-09 05:35:00,63.9,61.2,29.94,ESE,117,0.0,0.0,91,0.00,,,0.00,Wunderground v.1.15,2013-09-09 09:35:00,
2013-09-09 05:40:00,63.8,61.1,29.94,ESE,117,0.0,0.0,91,0.00,,,0.00,Wunderground v.1.15,2013-09-09 09:40:00,
2013-09-09 05:45:00,63.8,61.1,29.94,ESE,117,0.0,0.0,91,0.00,,,0.00,Wunderground v.1.15,2013-09-09 09:45:00,
2013-09-09 05:50:00,63.7,61.0,29.94,ESE,117,0.0,0.0,91,0.00,,,0.00,Wunderground v.1.15,2013-09-09 09:50:00,
2013-09-09 05:56:00,63.7,61.3,29.94,ESE,117,0.0,0.0,92,0.00,,,0.00,Wunderground v.1.15,2013-09-09 09:56:00,
2013-09-09 06:01:00,63.7,61.3,29.94,ESE,117,0.0,0.0,92,0.00,,,0.00,Wunderground v.1.15,2013-09-09 10:01:00,
2013-09-09 06:06:00,63.6,61.2,29.94,ESE,117,0.0,0.0,92,0.00,,,0.00,Wunderground v.1.15,2013-09-09 10:06:00,
2013-09-09 06:12:00,63.6,61.2,29.94,ESE,117,0.0,0.0,92,0.00,,,0.00,Wunderground v.1.15,2013-09-09 10:12:00,
2013-09-09 06:17:00,63.5,61.1,29.94,ESE,117,0.0,0.0,92,0.00,,,0.00,Wunderground v.1.15,2013-09-09 10:17:00,
2013-09-09 06:22:00,63.4,61.0,29.94,ESE,117,0.0,0.0,92,0.00,,,0.00,Wunderground v.1.15,2013-09-09 10:22:00,
2013-09-09 06:27:00,63.3,60.9,29.94,ESE,117,0.0,0.0,92,0.00,,,0.00,Wunderground v.1.15,2013-09-09 10:27:00,
2013-09-09 06:32:00,63.2,60.8,29.94,ESE,117,0.0,0.0,92,0.00,,,0.00,Wunderground v.1.15,2013-09-09 10:32:00,
2013-09-09 06:37:00,63.1,60.7,29.94,ESE,117,0.0,0.0,92,0.00,,,0.00,Wunderground v.1.15,2013-09-09 10:37:00,
2013-09-09 06:43:00,63.1,60.7,29.94,ESE,117,0.0,0.0,92,0.00,,,0.00,Wunderground v.1.15,2013-09-09 10:43:00,
2013-09-09 06:48:00,63.0,60.6,29.94,ESE,117,0.0,0.0,92,0.00,,,0.00,Wunderground v.1.15,2013-09-09 10:48:00,
2013-09-09 06:53:00,62.9,60.5,29.94,ESE,117,0.0,0.0,92,0.00,,,0.00,Wunderground v.1.15,2013-09-09 10:53:00,
2013-09-09 06:58:00,62.9,60.5,29.94,ESE,117,0.0,0.0,92,0.00,,,0.00,Wunderground v.1.15,2013-09-09 10:58:00,
2013-09-09 07:03:00,62.9,60.8,29.95,ESE,117,0.0,0.0,93,0.00,,,0.00,Wunderground v.1.15,2013-09-09 11:03:00,
2013-09-09 07:09:00,63.0,60.9,29.95,ESE,117,0.0,0.0,93,0.00,,,0.00,Wunderground v.1.15,2013-09-09 11:09:00,
2013-09-09 07:14:00,63.1,61.0,29.95,ESE,117,0.0,0.0,93,0.00,,,0.00,Wunderground v.1.15,2013-09-09 11:14:00,
2013-09-09 07:19:00,63.3,61.2,29.95,ESE,117,0.0,0.0,93,0.00,,,0.00,Wunderground v.1.15,2013-09-09 11:19:00,
2013-09-09 07:24:00,63.5,61.4,29.95,ESE,117,0.0,0.0,93,0.00,,,0.00,Wunderground v.1.15,2013-09-09 11:24:00,
2013-09-09 07:30:00,63.7,61.9,29.95,ESE,117,0.0,0.0,94,0.00,,,0.00,Wunderground v.1.15,2013-09-09 11:30:00,
2013-09-09 07:35:00,63.8,62.0,29.95,ESE,117,0.0,0.0,94,0.00,,,0.00,Wunderground v.1.15,2013-09-09 11:35:00,
2013-09-09 07:40:00,63.9,62.1,29.95,ESE,117,0.0,0.0,94,0.00,,,0.00,Wunderground v.1.15,2013-09-09 11:40:00,
2013-09-09 07:45:00,64.1,62.3,29.95,ESE,117,0.0,0.0,94,0.00,,,0.00,Wunderground v.1.15,2013-09-09 11:45:00,
2013-09-09 07:51:00,64.3,62.5,29.95,ESE,117,0.0,0.0,94,0.00,,,0.00,Wunderground v.1.15,2013-09-09 11:51:00,
2013-09-09 07:56:00,64.4,62.6,29.95,ESE,117,0.0,0.0,94,0.00,,,0.00,Wunderground v.1.15,2013-09-09 11:56:00,
2013-09-09 08:01:00,64.5,62.7,29.95,ESE,117,0.0,0.0,94,0.00,,,0.00,Wunderground v.1.15,2013-09-09 12:01:00,
2013-09-09 08:06:00,64.6,62.8,29.95,ESE,117,0.0,0.0,94,0.00,,,0.00,Wunderground v.1.15,2013-09-09 12:06:00,
2013-09-09 08:11:00,64.7,62.9,29.96,ESE,117,0.0,0.0,94,0.00,,,0.00,Wunderground v.1.15,2013-09-09 12:11:00,
2013-09-09 08:17:00,64.9,63.1,29.96,ESE,117,0.0,0.0,94,0.00,,,0.00,Wunderground v.1.15,2013-09-09 12:17:00,
2013-09-09 08:22:00,65.0,63.2,29.96,ESE,117,0.0,0.0,94,0.00,,,0.00,Wunderground v.1.15,2013-09-09 12:22:00,
2013-09-09 08:27:00,65.1,63.3,29.95,ESE,117,0.0,0.0,94,0.00,,,0.00,Wunderground v.1.15,2013-09-09 12:27:00,
2013-09-09 08:32:00,65.3,63.8,29.96,ESE,117,0.0,0.0,95,0.00,,,0.00,Wunderground v.1.15,2013-09-09 12:32:00,
2013-09-09 08:37:00,65.4,63.6,29.95,ESE,117,0.0,0.0,94,0.00,,,0.00,Wunderground v.1.15,2013-09-09 12:37:00,
2013-09-09 08:42:00,65.6,63.8,29.96,ESE,117,0.0,0.0,94,0.00,,,0.00,Wunderground v.1.15,2013-09-09 12:42:00,
2013-09-09 08:48:00,65.9,64.4,29.96,ESE,117,0.0,0.0,95,0.00,,,0.00,Wunderground v.1.15,2013-09-09 12:48:00,
2013-09-09 08:53:00,66.1,64.6,29.96,ESE,117,0.0,0.0,95,0.00,,,0.00,Wunderground v.1.15,2013-09-09 12:53:00,
2013-09-09 08:58:00,66.4,64.9,29.96,ESE,117,0.0,0.0,95,0.00,,,0.00,Wunderground v.1.15,2013-09-09 12:58:00,
2013-09-09 09:03:00,66.6,65.1,29.96,ESE,117,0.0,0.0,95,0.00,,,0.00,Wunderground v.1.15,2013-09-09 13:03:00,
2013-09-09 09:08:00,66.8,65.3,29.96,ESE,117,0.0,0.0,95,0.00,,,0.00,Wunderground v.1.15,2013-09-09 13:08:00,
2013-09-09 09:14:00,67.1,65.6,29.96,ESE,117,0.0,0.0,95,0.00,,,0.00,Wunderground v.1.15,2013-09-09 13:14:00,
2013-09-09 09:19:00,67.4,65.9,29.96,ESE,117,0.0,0.0,95,0.00,,,0.00,Wunderground v.1.15,2013-09-09 13:19:00,
2013-09-09 09:24:00,67.8,66.3,29.96,ESE,118,0.0,0.0,95,0.00,,,0.00,Wunderground v.1.15,2013-09-09 13:24:00,
2013-09-09 09:29:00,68.1,66.3,29.96,ESE,119,0.0,0.0,94,0.00,,,0.00,Wunderground v.1.15,2013-09-09 13:29:00,
2013-09-09 09:34:00,68.4,66.6,29.96,ESE,119,1.0,3.0,94,0.00,,,0.00,Wunderground v.1.15,2013-09-09 13:34:00,
2013-09-09 09:39:00,68.8,67.0,29.96,ESE,119,1.0,3.0,94,0.00,,,0.00,Wunderground v.1.15,2013-09-09 13:39:00,
2013-09-09 09:45:00,69.1,67.0,29.96,ESE,119,1.0,4.0,93,0.00,,,0.00,Wunderground v.1.15,2013-09-09 13:45:00,
2013-09-09 09:50:00,69.4,67.3,29.96,ESE,119,1.0,1.0,93,0.00,,,0.00,Wunderground v.1.15,2013-09-09 13:50:00,
2013-09-09 09:55:00,69.7,67.3,29.96,ESE,119,0.0,1.0,92,0.00,,,0.00,Wunderground v.1.15,2013-09-09 13:55:00,
2013-09-09 10:00:00,70.0,67.6,29.96,ESE,119,0.0,0.0,92,0.00,,,0.00,Wunderground v.1.15,2013-09-09 14:00:00,
2013-09-09 10:05:00,70.2,67.4,29.97,ESE,119,0.0,0.0,91,0.00,,,0.00,Wunderground v.1.15,2013-09-09 14:05:00,
2013-09-09 10:11:00,70.6,67.8,29.97,ESE,119,0.0,1.0,91,0.00,,,0.00,Wunderground v.1.15,2013-09-09 14:11:00,
2013-09-09 10:16:00,70.9,67.8,29.97,East,90,0.0,1.0,90,0.00,,,0.00,Wunderground v.1.15,2013-09-09 14:16:00,
2013-09-09 10:21:00,71.2,68.1,29.97,East,90,0.0,0.0,90,0.00,,,0.00,Wunderground v.1.15,2013-09-09 14:21:00,
2013-09-09 10:26:00,71.5,68.4,29.97,East,90,0.0,0.0,90,0.00,,,0.00,Wunderground v.1.15,2013-09-09 14:26:00,
2013-09-09 10:31:00,71.9,68.5,29.97,East,90,0.0,0.0,89,0.00,,,0.00,Wunderground v.1.15,2013-09-09 14:31:00,
2013-09-09 10:37:00,72.6,69.2,29.97,East,92,0.0,2.0,89,0.00,,,0.00,Wunderground v.1.15,2013-09-09 14:37:00,
2013-09-09 10:42:00,73.1,69.0,29.97,SE,139,1.0,1.0,87,0.00,,,0.00,Wunderground v.1.15,2013-09-09 14:42:00,
2013-09-09 10:47:00,73.7,69.2,29.96,SE,138,1.0,2.0,86,0.00,,,0.00,Wunderground v.1.15,2013-09-09 14:47:00,
2013-09-09 10:52:00,74.4,69.2,29.96,SSE,154,1.0,2.0,84,0.00,,,0.00,Wunderground v.1.15,2013-09-09 14:52:00,
2013-09-09 10:57:00,75.0,69.5,29.96,South,186,2.0,4.0,83,0.00,,,0.00,Wunderground v.1.15,2013-09-09 14:57:00,
2013-09-09 11:03:00,75.6,69.7,29.96,South,191,2.0,5.0,82,0.00,,,0.00,Wunderground v.1.15,2013-09-09 15:03:00,
2013-09-09 11:08:00,76.1,69.8,29.96,South,185,3.0,5.0,81,0.00,,,0.00,Wunderground v.1.15,2013-09-09 15:08:00,
2013-09-09 11:13:00,76.6,70.0,29.96,South,182,2.0,4.0,80,0.00,,,0.00,Wunderground v.1.15,2013-09-09 15:13:00,
2013-09-09 11:18:00,76.9,69.5,29.96,South,185,2.0,4.0,78,0.00,,,0.00,Wunderground v.1.15,2013-09-09 15:18:00,
2013-09-09 11:23:00,77.1,69.7,29.96,SSW,194,3.0,5.0,78,0.00,,,0.00,Wunderground v.1.15,2013-09-09 15:23:00,
2013-09-09 11:28:00,77.3,69.5,29.96,SSW,194,2.0,5.0,77,0.00,,,0.00,Wunderground v.1.15,2013-09-09 15:28:00,
2013-09-09 11:34:00,77.6,70.2,29.96,SSW,194,1.0,2.0,78,0.00,,,0.00,Wunderground v.1.15,2013-09-09 15:34:00,
2013-09-09 11:39:00,77.8,69.6,29.95,SSW,194,1.0,4.0,76,0.00,,,0.00,Wunderground v.1.15,2013-09-09 15:39:00,
2013-09-09 11:44:00,78.0,69.8,29.95,South,191,2.0,2.0,76,0.00,,,0.00,Wunderground v.1.15,2013-09-09 15:44:00,
2013-09-09 11:49:00,78.6,70.4,29.95,South,191,2.0,4.0,76,0.00,,,0.00,Wunderground v.1.15,2013-09-09 15:49:00,
2013-09-09 11:54:00,78.9,70.3,29.96,South,190,2.0,7.0,75,0.00,,,0.00,Wunderground v.1.15,2013-09-09 15:54:00,
2013-09-09 11:59:00,79.3,69.9,29.96,SSW,192,2.0,7.0,73,0.00,,,0.00,Wunderground v.1.15,2013-09-09 15:59:00,
2013-09-09 12:04:00,79.4,70.0,29.96,SSW,197,2.0,5.0,73,0.00,,,0.00,Wunderground v.1.15,2013-09-09 16:04:00,
2013-09-09 12:10:00,79.6,70.6,29.95,SSW,197,2.0,2.0,74,0.00,,,0.00,Wunderground v.1.15,2013-09-09 16:10:00,
2013-09-09 12:15:00,79.8,70.8,29.95,SSW,200,2.0,5.0,74,0.00,,,0.00,Wunderground v.1.15,2013-09-09 16:15:00,
2013-09-09 12:20:00,80.4,71.3,29.95,SSW,198,2.0,3.0,74,0.00,,,0.00,Wunderground v.1.15,2013-09-09 16:20:00,
2013-09-09 12:25:00,81.2,71.3,29.95,South,179,2.0,3.0,72,0.00,,,0.00,Wunderground v.1.15,2013-09-09 16:25:00,
2013-09-09 12:30:00,81.7,71.4,29.94,SSE,158,3.0,5.0,71,0.00,,,0.00,Wunderground v.1.15,2013-09-09 16:30:00,
2013-09-09 12:36:00,82.1,71.8,29.94,SSW,195,4.0,6.0,71,0.00,,,0.00,Wunderground v.1.15,2013-09-09 16:36:00,
2013-09-09 12:41:00,82.9,71.7,29.94,SSW,195,3.0,5.0,69,0.00,,,0.00,Wunderground v.1.15,2013-09-09 16:41:00,
2013-09-09 12:46:00,83.6,72.3,29.94,SSW,206,3.0,6.0,69,0.00,,,0.00,Wunderground v.1.15,2013-09-09 16:46:00,
2013-09-09 12:51:00,84.3,72.6,29.94,SW,219,3.0,3.0,68,0.00,,,0.00,Wunderground v.1.15,2013-09-09 16:51:00,
2013-09-09 12:57:00,85.0,72.4,29.94,SW,222,3.0,6.0,66,0.00,,,0.00,Wunderground v.1.15,2013-09-09 16:57:00,
2013-09-09 13:02:00,85.5,73.3,29.93,SSW,210,3.0,4.0,67,0.00,,,0.00,Wunderground v.1.15,2013-09-09 17:02:00,
2013-09-09 13:07:00,86.1,73.0,29.92,South,171,3.0,9.0,65,0.00,,,0.00,Wunderground v.1.15,2013-09-09 17:07:00,
2013-09-09 13:12:00,86.3,72.2,29.92,SW,234,4.0,8.0,63,0.00,,,0.00,Wunderground v.1.15,2013-09-09 17:12:00,
2013-09-09 13:17:00,86.6,73.0,29.92,SSW,195,4.0,8.0,64,0.00,,,0.00,Wunderground v.1.15,2013-09-09 17:17:00,
2013-09-09 13:22:00,86.9,72.8,29.92,SW,230,3.0,6.0,63,0.00,,,0.00,Wunderground v.1.15,2013-09-09 17:22:00,
2013-09-09 13:27:00,87.3,73.6,29.92,SW,229,3.0,6.0,64,0.00,,,0.00,Wunderground v.1.15,2013-09-09 17:27:00,
2013-09-09 13:32:00,87.7,72.6,29.92,WSW,241,3.0,6.0,61,0.00,,,0.00,Wunderground v.1.15,2013-09-09 17:32:00,
2013-09-09 13:38:00,87.9,72.3,29.91,SW,220,4.0,11.0,60,0.00,,,0.00,Wunderground v.1.15,2013-09-09 17:38:00,
2013-09-09 13:43:00,87.9,72.8,29.91,SSW,213,4.0,7.0,61,0.00,,,0.00,Wunderground v.1.15,2013-09-09 17:43:00,
2013-09-09 13:48:00,87.9,72.3,29.91,WSW,246,4.0,10.0,60,0.00,,,0.00,Wunderground v.1.15,2013-09-09 17:48:00,
2013-09-09 13:53:00,88.0,72.4,29.91,SSW,200,4.0,4.0,60,0.00,,,0.00,Wunderground v.1.15,2013-09-09 17:53:00,
2013-09-09 13:58:00,88.4,72.2,29.91,SW,215,3.0,7.0,59,0.00,,,0.00,Wunderground v.1.15,2013-09-09 17:58:00,
2013-09-09 14:03:00,88.8,72.6,29.91,SW,219,2.0,4.0,59,0.00,,,0.00,Wunderground v.1.15,2013-09-09 18:03:00,
2013-09-09 14:09:00,89.1,72.4,29.90,South,178,3.0,11.0,58,0.00,,,0.00,Wunderground v.1.15,2013-09-09 18:09:00,
2013-09-09 14:14:00,89.3,71.5,29.90,WSW,254,4.0,13.0,56,0.00,,,0.00,Wunderground v.1.15,2013-09-09 18:14:00,
2013-09-09 14:19:00,89.3,71.5,29.90,SSW,211,4.0,13.0,56,0.00,,,0.00,Wunderground v.1.15,2013-09-09 18:19:00,
2013-09-09 14:24:00,89.5,71.7,29.90,WSW,256,6.0,11.0,56,0.00,,,0.00,Wunderground v.1.15,2013-09-09 18:24:00,
2013-09-09 14:29:00,89.5,72.3,29.90,WSW,238,6.0,11.0,57,0.00,,,0.00,Wunderground v.1.15,2013-09-09 18:29:00,
2013-09-09 14:34:00,89.7,73.0,29.90,SSW,212,3.0,6.0,58,0.00,,,0.00,Wunderground v.1.15,2013-09-09 18:34:00,
2013-09-09 14:40:00,90.1,72.8,29.90,SW,221,3.0,7.0,57,0.00,,,0.00,Wunderground v.1.15,2013-09-09 18:40:00,
2013-09-09 14:45:00,90.4,72.6,29.90,SW,232,3.0,9.0,56,0.00,,,0.00,Wunderground v.1.15,2013-09-09 18:45:00,
2013-09-09 14:50:00,90.7,72.8,29.90,SSW,203,3.0,3.0,56,0.00,,,0.00,Wunderground v.1.15,2013-09-09 18:50:00,
2013-09-09 14:55:00,90.8,71.9,29.90,SW,220,3.0,8.0,54,0.00,,,0.00,Wunderground v.1.15,2013-09-09 18:55:00,
2013-09-09 15:00:00,91.0,72.6,29.89,SW,233,5.0,5.0,55,0.00,,,0.00,Wunderground v.1.15,2013-09-09 19:00:00,
2013-09-09 15:06:00,91.2,72.8,29.89,SW,234,4.0,9.0,55,0.00,,,0.00,Wunderground v.1.15,2013-09-09 19:06:00,
2013-09-09 15:11:00,91.3,72.3,29.89,WSW,244,4.0,17.0,54,0.00,,,0.00,Wunderground v.1.15,2013-09-09 19:11:00,
2013-09-09 15:16:00,91.7,72.7,29.88,SW,227,4.0,17.0,54,0.00,,,0.00,Wunderground v.1.15,2013-09-09 19:16:00,
2013-09-09 15:21:00,91.8,72.8,29.88,WSW,256,4.0,8.0,54,0.00,,,0.00,Wunderground v.1.15,2013-09-09 19:21:00,
2013-09-09 15:26:00,91.9,72.3,29.88,SW,236,4.0,8.0,53,0.00,,,0.00,Wunderground v.1.15,2013-09-09 19:26:00,
2013-09-09 15:31:00,91.8,72.2,29.88,SW,235,4.0,4.0,53,0.00,,,0.00,Wunderground v.1.15,2013-09-09 19:31:00,
2013-09-09 15:37:00,92.0,73.0,29.88,WSW,239,3.0,5.0,54,0.00,,,0.00,Wunderground v.1.15,2013-09-09 19:37:00,
2013-09-09 15:42:00,92.0,72.4,29.88,South,188,2.0,10.0,53,0.00,,,0.00,Wunderground v.1.15,2013-09-09 19:42:00,
2013-09-09 15:47:00,91.7,72.1,29.87,SW,221,2.0,10.0,53,0.00,,,0.00,Wunderground v.1.15,2013-09-09 19:47:00,
2013-09-09 15:52:00,91.5,72.5,29.87,SW,234,3.0,4.0,54,0.00,,,0.00,Wunderground v.1.15,2013-09-09 19:52:00,
2013-09-09 15:57:00,91.8,71.7,29.87,WSW,242,5.0,10.0,52,0.00,,,0.00,Wunderground v.1.15,2013-09-09 19:57:00,
2013-09-09 16:02:00,92.1,72.5,29.87,SW,218,6.0,8.0,53,0.00,,,0.00,Wunderground v.1.15,2013-09-09 20:02:00,
2013-09-09 16:08:00,92.5,72.3,29.86,SW,224,4.0,8.0,52,0.00,,,0.00,Wunderground v.1.15,2013-09-09 20:08:00,
2013-09-09 16:13:00,92.8,72.6,29.86,WSW,250,3.0,4.0,52,0.00,,,0.00,Wunderground v.1.15,2013-09-09 20:13:00,
2013-09-09 16:18:00,93.1,72.9,29.86,SW,225,2.0,7.0,52,0.00,,,0.00,Wunderground v.1.15,2013-09-09 20:18:00,
2013-09-09 16:23:00,93.1,72.9,29.86,SW,218,3.0,3.0,52,0.00,,,0.00,Wunderground v.1.15,2013-09-09 20:23:00,
2013-09-09 16:29:00,93.1,72.9,29.86,SW,232,4.0,10.0,52,0.00,,,0.00,Wunderground v.1.15,2013-09-09 20:29:00,
2013-09-09 16:34:00,93.0,72.8,29.86,WSW,246,5.0,12.0,52,0.00,,,0.00,Wunderground v.1.15,2013-09-09 20:34:00,
2013-09-09 16:39:00,93.0,72.8,29.86,WSW,252,6.0,12.0,52,0.00,,,0.00,Wunderground v.1.15,2013-09-09 20:39:00,
2013-09-09 16:44:00,93.0,72.8,29.86,WSW,242,5.0,8.0,52,0.00,,,0.00,Wunderground v.1.15,2013-09-09 20:44:00,
2013-09-09 16:49:00,93.1,72.9,29.85,SW,234,4.0,8.0,52,0.00,,,0.00,Wunderground v.1.15,2013-09-09 20:49:00,
2013-09-09 16:54:00,93.2,73.0,29.86,SSW,205,3.0,4.0,52,0.00,,,0.00,Wunderground v.1.15,2013-09-09 20:54:00,
2013-09-09 16:59:00,93.1,72.9,29.86,SSW,213,3.0,7.0,52,0.00,,,0.00,Wunderground v.1.15,2013-09-09 20:59:00,
2013-09-09 17:05:00,93.0,72.8,29.86,West,276,3.0,10.0,52,0.00,,,0.00,Wunderground v.1.15,2013-09-09 21:05:00,
2013-09-09 17:11:00,92.7,72.5,29.86,WSW,242,4.0,4.0,52,0.00,,,0.00,Wunderground v.1.15,2013-09-09 21:11:00,
2013-09-09 17:16:00,92.5,73.4,29.86,SW,223,5.0,6.0,54,0.00,,,0.00,Wunderground v.1.15,2013-09-09 21:16:00,
2013-09-09 17:21:00,92.5,72.9,29.86,SSW,198,4.0,7.0,53,0.00,,,0.00,Wunderground v.1.15,2013-09-09 21:21:00,
2013-09-09 17:26:00,92.5,73.4,29.86,SW,222,4.0,8.0,54,0.00,,,0.00,Wunderground v.1.15,2013-09-09 21:26:00,
2013-09-09 17:32:00,92.4,73.3,29.86,SW,218,4.0,5.0,54,0.00,,,0.00,Wunderground v.1.15,2013-09-09 21:32:00,
2013-09-09 17:37:00,92.5,73.4,29.86,SW,215,3.0,6.0,54,0.00,,,0.00,Wunderground v.1.15,2013-09-09 21:37:00,
2013-09-09 17:42:00,92.5,73.4,29.86,SW,236,3.0,4.0,54,0.00,,,0.00,Wunderground v.1.15,2013-09-09 21:42:00,
2013-09-09 17:47:00,92.4,73.3,29.86,WSW,246,4.0,10.0,54,0.00,,,0.00,Wunderground v.1.15,2013-09-09 21:47:00,
2013-09-09 17:52:00,92.3,73.2,29.85,South,179,5.0,12.0,54,0.00,,,0.00,Wunderground v.1.15,2013-09-09 21:52:00,
2013-09-09 17:57:00,92.1,73.1,29.85,SSE,167,3.0,12.0,54,0.00,,,0.00,Wunderground v.1.15,2013-09-09 21:57:00,
2013-09-09 18:03:00,91.9,72.9,29.85,SSW,210,3.0,7.0,54,0.00,,,0.00,Wunderground v.1.15,2013-09-09 22:03:00,
2013-09-09 18:08:00,91.8,72.8,29.85,SSW,211,5.0,10.0,54,0.00,,,0.00,Wunderground v.1.15,2013-09-09 22:08:00,
2013-09-09 18:13:00,91.6,73.1,29.86,SW,229,5.0,11.0,55,0.00,,,0.00,Wunderground v.1.15,2013-09-09 22:13:00,
2013-09-09 18:18:00,91.5,73.1,29.86,SW,230,5.0,11.0,55,0.00,,,0.00,Wunderground v.1.15,2013-09-09 22:18:00,
2013-09-09 18:24:00,91.2,72.8,29.85,SW,234,5.0,5.0,55,0.00,,,0.00,Wunderground v.1.15,2013-09-09 22:24:00,
2013-09-09 18:29:00,91.1,73.7,29.85,WSW,246,4.0,5.0,57,0.00,,,0.00,Wunderground v.1.15,2013-09-09 22:29:00,
2013-09-09 18:34:00,90.9,73.0,29.85,WSW,246,2.0,7.0,56,0.00,,,0.00,Wunderground v.1.15,2013-09-09 22:34:00,
2013-09-09 18:39:00,90.8,73.5,29.86,WSW,242,3.0,7.0,57,0.00,,,0.00,Wunderground v.1.15,2013-09-09 22:39:00,
2013-09-09 18:44:00,90.5,74.2,29.86,WSW,250,3.0,4.0,59,0.00,,,0.00,Wunderground v.1.15,2013-09-09 22:44:00,
2013-09-09 18:50:00,90.2,73.4,29.86,WSW,247,2.0,5.0,58,0.00,,,0.00,Wunderground v.1.15,2013-09-09 22:50:00,
2013-09-09 18:55:00,89.9,73.1,29.86,SW,231,3.0,5.0,58,0.00,,,0.00,Wunderground v.1.15,2013-09-09 22:55:00,
2013-09-09 19:00:00,89.6,72.9,29.86,SW,235,2.0,2.0,58,0.00,,,0.00,Wunderground v.1.15,2013-09-09 23:00:00,
2013-09-09 19:06:00,89.3,73.1,29.86,WSW,239,2.0,4.0,59,0.00,,,0.00,Wunderground v.1.15,2013-09-09 23:06:00,
2013-09-09 19:11:00,89.0,73.3,29.86,WSW,237,2.0,4.0,60,0.00,,,0.00,Wunderground v.1.15,2013-09-09 23:11:00,
2013-09-09 19:16:00,88.8,73.1,29.85,WSW,237,1.0,4.0,60,0.00,,,0.00,Wunderground v.1.15,2013-09-09 23:16:00,
2013-09-09 19:22:00,88.4,73.2,29.86,SW,236,1.0,5.0,61,0.00,,,0.00,Wunderground v.1.15,2013-09-09 23:22:00,
2013-09-09 19:27:00,88.1,73.0,29.86,WSW,237,1.0,5.0,61,0.00,,,0.00,Wunderground v.1.15,2013-09-09 23:27:00,
2013-09-09 19:32:00,87.7,73.1,29.86,WSW,238,1.0,1.0,62,0.00,,,0.00,Wunderground v.1.15,2013-09-09 23:32:00,
2013-09-09 19:37:00,87.3,73.2,29.86,SW,235,0.0,4.0,63,0.00,,,0.00,Wunderground v.1.15,2013-09-09 23:37:00,
2013-09-09 19:42:00,87.0,72.9,29.86,SW,236,1.0,1.0,63,0.00,,,0.00,Wunderground v.1.15,2013-09-09 23:42:00,
2013-09-09 19:47:00,86.6,73.0,29.86,SW,236,0.0,1.0,64,0.00,,,0.00,Wunderground v.1.15,2013-09-09 23:47:00,
2013-09-09 19:53:00,86.3,73.1,29.86,SW,236,0.0,0.0,65,0.00,,,0.00,Wunderground v.1.15,2013-09-09 23:53:00,
2013-09-09 19:59:00,85.9,72.8,29.87,SW,236,0.0,3.0,65,0.00,,,0.00,Wunderground v.1.15,2013-09-09 23:59:00,
2013-09-09 20:04:00,85.5,72.8,29.87,SW,235,0.0,4.0,66,0.00,,,0.00,Wunderground v.1.15,2013-09-10 00:04:00,
2013-09-09 20:09:00,85.0,72.8,29.87,SW,235,0.0,4.0,67,0.00,,,0.00,Wunderground v.1.15,2013-09-10 00:09:00,
2013-09-09 20:14:00,84.7,73.0,29.87,SW,235,0.0,2.0,68,0.00,,,0.00,Wunderground v.1.15,2013-09-10 00:14:00,
2013-09-09 20:19:00,84.3,72.6,29.87,SW,234,0.0,2.0,68,0.00,,,0.00,Wunderground v.1.15,2013-09-10 00:19:00,
2013-09-09 20:25:00,83.9,72.6,29.88,SW,235,0.0,0.0,69,0.00,,,0.00,Wunderground v.1.15,2013-09-10 00:25:00,
2013-09-09 20:30:00,83.5,72.7,29.88,SW,235,0.0,0.0,70,0.00,,,0.00,Wunderground v.1.15,2013-09-10 00:30:00,
2013-09-09 20:35:00,83.1,72.7,29.88,SW,234,1.0,5.0,71,0.00,,,0.00,Wunderground v.1.15,2013-09-10 00:35:00,
2013-09-09 20:41:00,82.9,72.5,29.88,SW,234,1.0,3.0,71,0.00,,,0.00,Wunderground v.1.15,2013-09-10 00:41:00,
2013-09-09 20:46:00,82.7,72.3,29.88,SW,234,1.0,3.0,71,0.00,,,0.00,Wunderground v.1.15,2013-09-10 00:46:00,
2013-09-09 20:51:00,82.5,72.6,29.88,SW,233,1.0,3.0,72,0.00,,,0.00,Wunderground v.1.15,2013-09-10 00:51:00,
2013-09-09 20:56:00,82.4,72.5,29.88,SW,234,1.0,3.0,72,0.00,,,0.00,Wunderground v.1.15,2013-09-10 00:56:00,
2013-09-09 21:02:00,82.2,72.3,29.88,SW,233,0.0,1.0,72,0.00,,,0.00,Wunderground v.1.15,2013-09-10 01:02:00,
2013-09-09 21:07:00,82.0,72.1,29.89,SW,234,0.0,1.0,72,0.00,,,0.00,Wunderground v.1.15,2013-09-10 01:07:00,
2013-09-09 21:12:00,82.0,72.5,29.89,SW,234,0.0,3.0,73,0.00,,,0.00,Wunderground v.1.15,2013-09-10 01:12:00,
2013-09-09 21:18:00,81.8,72.3,29.89,SW,234,1.0,5.0,73,0.00,,,0.00,Wunderground v.1.15,2013-09-10 01:18:00,
2013-09-09 21:23:00,81.7,72.2,29.89,SW,234,1.0,1.0,73,0.00,,,0.00,Wunderground v.1.15,2013-09-10 01:23:00,
2013-09-09 21:28:00,81.5,72.4,29.90,SW,233,0.0,1.0,74,0.00,,,0.00,Wunderground v.1.15,2013-09-10 01:28:00,
2013-09-09 21:33:00,81.4,72.3,29.90,SW,234,0.0,4.0,74,0.00,,,0.00,Wunderground v.1.15,2013-09-10 01:33:00,
2013-09-09 21:38:00,81.2,72.5,29.89,SW,233,1.0,4.0,75,0.00,,,0.00,Wunderground v.1.15,2013-09-10 01:38:00,
2013-09-09 21:43:00,81.0,72.3,29.89,SW,234,1.0,2.0,75,0.00,,,0.00,Wunderground v.1.15,2013-09-10 01:43:00,
2013-09-09 21:48:00,80.9,72.2,29.89,SW,233,1.0,2.0,75,0.00,,,0.00,Wunderground v.1.15,2013-09-10 01:48:00,
2013-09-09 21:53:00,80.8,72.1,29.90,SW,234,1.0,2.0,75,0.00,,,0.00,Wunderground v.1.15,2013-09-10 01:53:00,
2013-09-09 21:59:00,80.7,72.0,29.90,SW,234,1.0,5.0,75,0.00,,,0.00,Wunderground v.1.15,2013-09-10 01:59:00,
2013-09-09 22:04:00,80.6,72.3,29.90,SW,233,0.0,4.0,76,0.00,,,0.00,Wunderground v.1.15,2013-09-10 02:04:00,
2013-09-09 22:10:00,80.5,72.2,29.90,SW,234,0.0,0.0,76,0.00,,,0.00,Wunderground v.1.15,2013-09-10 02:10:00,
2013-09-09 22:15:00,80.4,72.1,29.90,SW,233,1.0,6.0,76,0.00,,,0.00,Wunderground v.1.15,2013-09-10 02:15:00,
2013-09-09 22:20:00,80.3,72.4,29.90,SW,234,0.0,0.0,77,0.00,,,0.00,Wunderground v.1.15,2013-09-10 02:20:00,
2013-09-09 22:25:00,80.2,72.3,29.90,SW,233,0.0,2.0,77,0.00,,,0.00,Wunderground v.1.15,2013-09-10 02:25:00,
2013-09-09 22:31:00,80.1,72.2,29.90,SW,234,0.0,4.0,77,0.00,,,0.00,Wunderground v.1.15,2013-09-10 02:31:00,
2013-09-09 22:36:00,79.9,72.4,29.90,SW,233,1.0,4.0,78,0.00,,,0.00,Wunderground v.1.15,2013-09-10 02:36:00,
2013-09-09 22:41:00,79.8,72.3,29.90,SW,233,2.0,2.0,78,0.00,,,0.00,Wunderground v.1.15,2013-09-10 02:41:00,
2013-09-09 22:46:00,79.7,72.2,29.90,SW,233,1.0,2.0,78,0.00,,,0.00,Wunderground v.1.15,2013-09-10 02:46:00,
2013-09-09 22:51:00,79.5,72.4,29.90,SW,233,1.0,2.0,79,0.00,,,0.00,Wunderground v.1.15,2013-09-10 02:51:00,
2013-09-09 22:57:00,79.5,72.4,29.91,SW,233,1.0,2.0,79,0.00,,,0.00,Wunderground v.1.15,2013-09-10 02:57:00,
2013-09-09 23:02:00,79.4,72.7,29.91,SW,233,1.0,1.0,80,0.00,,,0.00,Wunderground v.1.15,2013-09-10 03:02:00,
2013-09-09 23:07:00,79.4,72.7,29.91,SW,233,1.0,4.0,80,0.00,,,0.00,Wunderground v.1.15,2013-09-10 03:07:00,
2013-09-09 23:13:00,79.3,72.6,29.90,SW,233,1.0,3.0,80,0.00,,,0.00,Wunderground v.1.15,2013-09-10 03:13:00,
2013-09-09 23:18:00,79.3,72.6,29.90,SW,233,1.0,5.0,80,0.00,,,0.00,Wunderground v.1.15,2013-09-10 03:18:00,
2013-09-09 23:23:00,79.3,72.6,29.91,SW,233,1.0,1.0,80,0.00,,,0.00,Wunderground v.1.15,2013-09-10 03:23:00,
2013-09-09 23:28:00,79.2,72.5,29.91,SW,233,1.0,5.0,80,0.00,,,0.00,Wunderground v.1.15,2013-09-10 03:28:00,
2013-09-09 23:34:00,79.2,72.5,29.91,SW,233,1.0,3.0,80,0.00,,,0.00,Wunderground v.1.15,2013-09-10 03:34:00,
2013-09-09 23:39:00,79.1,72.4,29.91,SW,233,1.0,3.0,80,0.00,,,0.00,Wunderground v.1.15,2013-09-10 03:39:00,
2013-09-09 23:45:00,79.0,72.3,29.91,SW,233,1.0,2.0,80,0.00,,,0.00,Wunderground v.1.15,2013-09-10 03:45:00,
2013-09-09 23:50:00,78.9,72.6,29.92,SW,233,0.0,0.0,81,0.00,,,0.00,Wunderground v.1.15,2013-09-10 03:50:00,
2013-09-09 23:55:00,78.7,72.4,29.92,SW,233,0.0,2.0,81,0.00,,,0.00,Wunderground v.1.15,2013-09-10 03:55:00,